Regional Weather Roundup
Issued by NWS

Home | Current Version | Previous Version | Text Only | Print | Product List | Glossary Off
Versions: 1 2 3 4 5 6 7 8 9 10 11 12 13 14 15 16 17 18 19 20 21 22 23 24 25 26 27 28 29 30 31 32 33 34 35 36 37 38 39 40 41 42 43 44 45 46 47 48 49 50

000
ASUS43 KBIS 231420
RWRND

NORTH DAKOTA REGIONAL WEATHER ROUNDUP
NATIONAL WEATHER SERVICE BISMARCK ND
900 AM CDT TUE SEP 23 2014

NOTE: "FAIR" INDICATES FEW OR NO CLOUDS BELOW 12,000 FEET WITH NO
SIGNIFICANT WEATHER AND/OR OBSTRUCTIONS TO VISIBILITY.


NDZ001>003-009>011-017-231500-
NORTHWEST NORTH DAKOTA

CITY           SKY/WX    TMP DP  RH WIND       PRES   REMARKS
WILLISTON      SUNNY     55  49  80 NE3       29.85S
MINOT          SUNNY     55  50  83 SE7       29.88S
MINOT AFB      SUNNY     55  55  99 SE9       29.88S
$$

NDZ018>021-031>035-040>046-231500-
SOUTHWEST NORTH DAKOTA

CITY           SKY/WX    TMP DP  RH WIND       PRES   REMARKS
BISMARCK       SUNNY     63  56  78 SE6       29.93R
DICKINSON      SUNNY     54  52  93 S8        29.87S
GARRISON         N/A     58  55  90 S8        29.90R
HETTINGER ARPT MOSUNNY   56  54  93 SE6       29.92R
$$

NDZ004>008-012>016-024-026-027-054-231500-
NORTHEAST NORTH DAKOTA

CITY           SKY/WX    TMP DP  RH WIND       PRES   REMARKS
GRAND FORKS    SUNNY     57  50  77 S14       30.02S
GRND FRKS AFB  SUNNY     56  52  86 S12       30.02S
DEVILS LAKE    SUNNY     61  50  67 S10       29.96S
$$

NDZ022-023-025-028>030-036>039-047>053-231500-
SOUTHEAST NORTH DAKOTA

CITY           SKY/WX    TMP DP  RH WIND       PRES   REMARKS
FARGO          SUNNY     59  49  69 SE14      30.05S
JAMESTOWN      MOSUNNY   59  52  77 S14       29.99R
$$




USA.gov is the U.S. government's official web portal to all federal, state and local government web resources and services.